Home   Weather   Uluru   Past weeks

Flag for Australia Past Weather in Uluru, Northern Territory, Australia — Yesterday and Last 2 Weeks

Now
57 °F

Clear.


Feels Like: 57 °F
Forecast: 49 / 76 °F
Wind: 3 mph from East

Location: Ayers Rock

Current Time: Apr 30, 2017 at 8:58:48 pm

Latest Report: Apr 30, 2017 at 8:30 pm


Visibility: N/A

Pressure: 30.09 "Hg (27.17 "Hg at 857m altitude)

Humidity: 59%

Dew Point: 43 °F

Location of UluruLocation

Past Weather in Uluru — Graph

°F

Uluru Temperature Yesterday

Maximum temperature yesterday: 70 °F (at 1:30 pm)
Minimum temperature yesterday: 52 °F (at 1:30 am)
Average temperature yesterday: 60 °F

High & Low Weather Summary for the Past Weeks

 TemperatureHumidityPressure
High88 °F (Apr 16, 2:30 pm)100% (Apr 17, 2:30 pm)30.33 "Hg (Apr 17, 2:30 pm)
Low48 °F (Apr 28, 5:30 am)11% (Apr 16, 1:30 pm)29.92 "Hg (Apr 24, 2:30 pm)
Average68 °F62%30.11 "Hg
* Reported Apr 15 7:30 pm — Apr 30 7:30 pm, Uluru, Weather by CustomWeather, © 2017

Note: Actual official high and low records may vary slightly from our data, if they occured in-between our weather recording intervals... More about our weather records

Advertising

Uluru Weather History for the Previous 24 Hours

Scroll right to see more
 ConditionsComfort  
Time TempWeatherWind HumidityBarometerVisibility
7:30 pm
Sun, Apr 30
61 °FClear.6 mph52%30.09 "HgN/A
6:30 pm66 °FSunny.5 mph37%30.09 "HgN/A
5:30 pm68 °FSunny.5 mph35%30.07 "HgN/A
4:30 pm70 °FSunny.3 mph33%30.07 "HgN/A
3:30 pm70 °FSunny.3 mph33%30.07 "HgN/A
2:30 pm70 °FSunny.6 mph33%30.07 "HgN/A
1:30 pm70 °FSunny.3 mph33%30.09 "HgN/A
12:30 pm68 °FSunny.6 mph38%30.12 "HgN/A
11:30 am64 °FSunny.9 mph40%30.15 "HgN/A
10:30 am63 °FSunny.10 mph45%30.15 "HgN/A
9:30 am61 °FSunny.10 mph48%30.18 "HgN/A
8:30 am57 °FSunny.8 mph55%30.15 "HgN/A
7:30 am55 °FClear.6 mph63%30.15 "HgN/A
6:30 am55 °FClear.7 mph59%30.12 "HgN/A
5:30 am55 °FClear.6 mph63%30.12 "HgN/A
4:30 am55 °FClear.6 mph59%30.12 "HgN/A
3:30 am55 °FClear.6 mph59%30.12 "HgN/A
2:30 am57 °FClear.6 mph55%30.12 "HgN/A
1:30 am59 °FClear.6 mph51%30.12 "HgN/A
12:30 am59 °FClear.8 mph51%30.15 "HgN/A
11:30 pm
Sat, Apr 29
59 °FClear.8 mph51%30.15 "HgN/A
10:30 pm59 °FClear.7 mph51%30.15 "HgN/A
9:30 pm63 °FClear.7 mph45%30.15 "HgN/A
8:30 pm63 °FClear.8 mph39%30.15 "HgN/A
Weather by CustomWeather, © 2017

See weather overviewHow to use our weather pages